Antigo, WI

6:57 PM CDT on October 19, 2017 (GMT -0500)
Langlade County

Weather History for KAIG - August, 2013

Change the Weather History Date:

Saturday, August 3, 2013

  Actual Average Record
Temperature  
Mean Temperature 57 °F -  
Max Temperature 70 °F 77 °F 96 °F (1988)
Min Temperature 44 °F 54 °F 41 °F (1978)
Degree Days  
Heating Degree Days 8    
Growing Degree Days 7 (Base 50)    
Moisture  
Dew Point 49 °F    
Average Humidity 74    
Maximum Humidity 100    
Minimum Humidity 47    
Precipitation  
Precipitation 0.00 in - - ()
Sea Level Pressure  
Sea Level Pressure 30.10 in    
Wind  
Wind Speed 3 mph (NNW)    
Max Wind Speed 12 mph    
Max Gust Speed 20 mph    
Visibility 10 miles    
Events Fog    
Averages and records for this station are not official NWS values.
T = Trace of Precipitation, MM = Missing Value Source: NWS Daily Summary

Daily Weather History Graph

Daily Weather History Graph

Search for Another Location

Airport or City:

Trip Planner

Search our weather history database for the weather conditions in past years. The results will help you decide how hot, cold, wet, or windy it might be!

Date:

Astronomy

Aug. 03, 2013 Rise Set
Actual Time 5:43 AM CDT 8:20 PM CDT
Civil Twilight 5:10 AM CDT 8:53 PM CDT
Nautical Twilight 4:28 AM CDT 9:35 PM CDT
Astronomical Twilight 3:39 AM CDT 10:23 PM CDT
Moon 2:51 AM CDT (8/3) 6:04 PM CDT (8/3)
Length of Visible Light 15h 43m
Length of Day
14h 36m
Waning Crescent, 9% of the Moon is Illuminated
Aug 3
Waning Crescent
Aug 6
New
Aug 14
First Quarter
Aug 20
Full
Aug 28
Last Quarter

Hourly Weather History & Observations

Time (CDT) Temp. Dew Point Humidity Pressure Visibility Wind Dir Wind Speed Gust Speed Precip Events Conditions
12:15 AM 48.7 °F 47.7 °F 96% 30.02 in 10.0 mi Calm Calm - N/A   Clear
12:35 AM 50.5 °F 49.3 °F 95% 30.02 in 10.0 mi Calm Calm - N/A   Clear
12:55 AM 48.7 °F 48.2 °F 98% 30.02 in 10.0 mi Calm Calm - N/A   Clear
1:15 AM 48.6 °F 48.2 °F 99% 30.03 in 10.0 mi Calm Calm - N/A   Clear
1:35 AM 48.2 °F 47.8 °F 99% 30.03 in 10.0 mi Calm Calm - N/A   Clear
1:55 AM 47.1 °F 46.2 °F 97% 30.03 in 10.0 mi Calm Calm - N/A   Clear
2:15 AM 47.5 °F 46.2 °F 95% 30.03 in 10.0 mi Calm Calm - N/A   Clear
2:35 AM 48.4 °F 48.2 °F 99% 30.03 in 4.0 mi Calm Calm - N/A   Clear
2:55 AM 47.3 °F 46.6 °F 97% 30.04 in 10.0 mi Calm Calm - N/A   Clear
3:15 AM 46.2 °F 45.7 °F 98% 30.04 in 10.0 mi Calm Calm - N/A   Clear
3:35 AM 45.9 °F 45.1 °F 97% 30.05 in 10.0 mi Calm Calm - N/A   Clear
3:55 AM 45.0 °F 44.6 °F 99% 30.05 in 10.0 mi Calm Calm - N/A   Clear
4:15 AM 45.7 °F 45.1 °F 98% 30.05 in 10.0 mi Calm Calm - N/A   Clear
4:35 AM 45.5 °F 45.0 °F 98% 30.05 in 10.0 mi Calm Calm - N/A   Clear
4:55 AM 45.1 °F 44.8 °F 99% 30.06 in 10.0 mi Calm Calm - N/A   Clear
5:15 AM 44.2 °F 43.9 °F 99% 30.06 in 10.0 mi Calm Calm - N/A   Clear
5:35 AM 44.8 °F 44.1 °F 97% 30.07 in 1.0 mi Calm Calm - N/A   Mist
5:55 AM 44.6 °F 44.4 °F 99% 30.08 in 3.0 mi Calm Calm - N/A   Scattered Clouds
6:15 AM 44.6 °F 44.6 °F 100% 30.08 in 0.2 mi Calm Calm - N/A Fog Fog
6:35 AM 45.7 °F 45.7 °F 100% 30.08 in 7.0 mi Calm Calm - N/A   Scattered Clouds
6:55 AM 47.8 °F 47.7 °F 99% 30.08 in 10.0 mi Calm Calm - N/A   Clear
7:15 AM 50.0 °F 49.5 °F 98% 30.08 in 10.0 mi Calm Calm - N/A   Clear
7:35 AM 52.2 °F 50.2 °F 93% 30.08 in 10.0 mi Calm Calm - N/A   Clear
7:55 AM 54.9 °F 51.6 °F 89% 30.09 in 10.0 mi Calm Calm - N/A   Clear
8:15 AM 57.2 °F 53.1 °F 86% 30.08 in 10.0 mi NNW 3.5 mph - N/A   Clear
8:35 AM 59.4 °F 53.8 °F 82% 30.08 in 10.0 mi NNW 3.5 mph - N/A   Clear
8:55 AM 61.5 °F 53.6 °F 75% 30.08 in 10.0 mi NNW 5.8 mph - N/A   Clear
9:15 AM 63.7 °F 51.8 °F 65% 30.09 in 10.0 mi NW 6.9 mph - N/A   Clear
9:35 AM 64.4 °F 51.1 °F 62% 30.09 in 10.0 mi NNW 8.1 mph - N/A   Clear
9:55 AM 65.3 °F 50.4 °F 58% 30.09 in 10.0 mi NNW 9.2 mph - N/A   Clear
10:15 AM 66.4 °F 50.7 °F 57% 30.10 in 10.0 mi NW 8.1 mph - N/A   Clear
10:35 AM 67.5 °F 51.1 °F 56% 30.10 in 10.0 mi WNW 9.2 mph - N/A   Scattered Clouds
10:55 AM 67.3 °F 50.5 °F 55% 30.10 in 10.0 mi NW 11.5 mph 19.6 mph N/A   Scattered Clouds
11:15 AM 66.4 °F 49.8 °F 55% 30.10 in 10.0 mi NNW 10.4 mph 17.3 mph N/A   Mostly Cloudy
11:35 AM 67.5 °F 50.2 °F 54% 30.10 in 10.0 mi NW 8.1 mph - N/A   Mostly Cloudy
11:55 AM 68.5 °F 50.4 °F 52% 30.11 in 10.0 mi NNW 10.4 mph - N/A   Mostly Cloudy
12:15 PM 68.9 °F 49.5 °F 50% 30.11 in 10.0 mi NW 11.5 mph 19.6 mph N/A   Mostly Cloudy
12:35 PM 68.2 °F 50.7 °F 54% 30.11 in 10.0 mi NW 8.1 mph 16.1 mph N/A   Mostly Cloudy
12:55 PM 68.4 °F 49.1 °F 50% 30.11 in 10.0 mi NNW 9.2 mph - N/A   Scattered Clouds
1:15 PM 70.9 °F 49.8 °F 47% 30.11 in 10.0 mi WNW 8.1 mph - N/A   Scattered Clouds
1:35 PM 68.0 °F 49.6 °F 52% 30.11 in 10.0 mi WNW 6.9 mph - N/A   Mostly Cloudy
1:55 PM 68.7 °F 48.7 °F 49% 30.11 in 10.0 mi WNW 8.1 mph - N/A   Mostly Cloudy
2:15 PM 69.6 °F 48.9 °F 48% 30.11 in 10.0 mi West 10.4 mph - N/A   Scattered Clouds
2:35 PM 68.0 °F 49.5 °F 51% 30.11 in 10.0 mi West 9.2 mph - N/A   Scattered Clouds
2:55 PM 68.7 °F 48.7 °F 49% 30.11 in 10.0 mi WNW 9.2 mph - N/A   Scattered Clouds
3:15 PM 67.1 °F 49.8 °F 54% 30.11 in 10.0 mi NW 6.9 mph - N/A   Mostly Cloudy
3:35 PM 69.1 °F 49.3 °F 49% 30.10 in 10.0 mi NW 6.9 mph - N/A   Mostly Cloudy
3:55 PM 68.0 °F 48.9 °F 50% 30.10 in 10.0 mi NW 10.4 mph - N/A   Scattered Clouds
4:15 PM 67.3 °F 49.3 °F 52% 30.11 in 10.0 mi NNW 9.2 mph - N/A   Mostly Cloudy
4:35 PM 66.2 °F 50.0 °F 56% 30.11 in 10.0 mi NW 4.6 mph - N/A   Overcast
4:55 PM 69.6 °F 50.0 °F 50% 30.10 in 10.0 mi WNW 6.9 mph - N/A   Mostly Cloudy
5:15 PM 66.9 °F 49.5 °F 53% 30.11 in 10.0 mi NNW 10.4 mph 16.1 mph N/A   Scattered Clouds
5:35 PM 68.7 °F 49.6 °F 51% 30.11 in 10.0 mi NNW 9.2 mph - N/A   Scattered Clouds
5:55 PM 68.9 °F 49.3 °F 50% 30.11 in 10.0 mi NW 10.4 mph - N/A   Scattered Clouds
6:15 PM 68.4 °F 48.2 °F 48% 30.11 in 10.0 mi NNW 8.1 mph - N/A   Scattered Clouds
6:35 PM 68.2 °F 47.8 °F 48% 30.11 in 10.0 mi NNW 8.1 mph - N/A   Scattered Clouds
6:55 PM 67.1 °F 50.2 °F 55% 30.12 in 10.0 mi North 10.4 mph - N/A   Clear
7:15 PM 66.2 °F 49.3 °F 54% 30.12 in 10.0 mi NNW 9.2 mph - N/A   Clear
7:35 PM 64.6 °F 50.2 °F 60% 30.13 in 10.0 mi NNW 6.9 mph - N/A   Clear
7:55 PM 63.3 °F 49.1 °F 60% 30.13 in 10.0 mi NNW 6.9 mph - N/A   Clear
8:15 PM 60.8 °F 49.3 °F 66% 30.13 in 10.0 mi NNW 6.9 mph - N/A   Clear
8:35 PM 57.7 °F 50.0 °F 75% 30.14 in 10.0 mi North 5.8 mph - N/A   Clear
8:55 PM 56.1 °F 50.0 °F 80% 30.14 in 10.0 mi North 6.9 mph - N/A   Clear
9:15 PM 55.0 °F 50.0 °F 83% 30.15 in 10.0 mi North 6.9 mph - N/A   Clear
9:35 PM 55.2 °F 49.5 °F 81% 30.16 in 10.0 mi North 5.8 mph - N/A   Clear
9:55 PM 53.6 °F 49.5 °F 86% 30.16 in 10.0 mi North 4.6 mph - N/A   Clear
10:15 PM 52.7 °F 48.7 °F 86% 30.17 in 10.0 mi NNE 4.6 mph - N/A   Clear
10:35 PM 53.6 °F 49.6 °F 86% 30.18 in 10.0 mi North 4.6 mph - N/A   Clear
10:55 PM 52.0 °F 48.9 °F 89% 30.18 in 10.0 mi North 5.8 mph - N/A   Clear
11:15 PM 51.4 °F 48.7 °F 90% 30.19 in 10.0 mi North 4.6 mph - N/A   Clear
11:35 PM 50.4 °F 48.2 °F 92% 30.19 in 10.0 mi Calm Calm - N/A   Clear
11:55 PM 49.1 °F 47.7 °F 95% 30.20 in 10.0 mi Calm Calm - N/A   Clear